Temp
20 19 20 20 20 20 20 21 21 21 20 20 20 20 19 19 19 18 18 19 19 19 19 19 19 19 18 18 18 18 18 18 19 18 18 18 18 18 18 19 18 18 18
20 20 20 20 20 21 20 20 20 20 20 20 20 20 19 19 18 18 18 19 19 19 19 19 19 19 19 18 17 17 17 18 19 18 18 18 18 18 18 18 18 18 18
19 20 20 21 20 21 20 20 20 20 20 20 19 19 19 19 18 18 18 19 19 19 19 19 19 18 18 17 17 17 17 18 18 18 18 18 18 18 18 18 18 18 18
19 19 20 21 20 20 21 20 20 20 20 20 19 19 19 18 18 18 19 19 19 19 19 19 18 18 17 17 17 17 18 18 18 18 18 18 18 18 18 18 18 18 18
19 20 20 21 20 20 20 20 20 20 20 20 19 19 19 19 19 19 19 19 19 19 19 18 17 17 17 17 18 18 18 18 18 18 18 17 18 17 17 17 17 17 17
19 19 20 20 20 20 20 20 20 20 20 20 20 19 19 19 19 19 19 19 19 18 18 17 17 17 18 18 18 18 19 19 18 18 18 18 17 17 16 16 16 16 16
19 19 20 20 20 20 20 20 20 20 20 20 20 19 19 19 19 19 19 19 19 18 17 17 17 18 18 18 18 18 19 19 18 18 18 18 17 17 17 16 16 16 16
18 19 20 20 20 20 20 20 20 20 20 20 20 19 19 19 19 19 19 19 19 19 17 17 18 18 18 18 18 18 18 18 18 18 18 17 17 17 16 16 17 17 17
18 18 20 20 20 20 20 20 20 20 20 20 19 19 19 20 19 19 19 19 19 20 19 18 18 18 18 18 18 18 19 19 18 18 18 17 17 16 16 17 17 17 17
18 18 19 20 20 20 19 19 20 20 20 20 20 19 19 19 19 19 19 19 19 20 19 18 18 18 18 19 18 18 18 18 18 18 18 17 17 16 16 17 17 17 17
19 18 18 18 19 19 19 19 19 19 19 19 19 19 19 19 19 19 19 19 19 19 19 18 18 18 18 18 18 18 18 18 18 18 18 18 17 16 17 17 17 17 17
17 18 18 17 18 19 19 19 19 19 19 19 19 19 18 18 18 18 19 19 18 18 19 19 18 18 18 18 18 18 18 18 18 18 18 18 18 16 17 17 17 17 17
16 17 18 18 17 18 19 19 19 19 19 19 19 19 19 18 18 18 17 18 17 18 17 18 17 17 18 18 18 18 18 18 18 18 18 18 18 17 16 17 17 17 17
16 17 18 18 18 17 17 18 19 19 19 19 19 19 19 18 18 17 17 17 17 17 18 18 18 18 18 18 18 18 18 18 18 18 18 18 18 18 17 17 17 17 17
15 17 18 18 18 17 16 18 19 19 19 20 19 19 19 18 18 18 17 17 17 17 17 18 17 17 17 17 17 18 18 18 18 18 19 19 18 18 18 17 16 16 17
14 16 17 18 18 17 16 17 18 19 19 19 19 19 18 18 18 18 17 17 17 17 18 18 18 17 17 17 17 17 18 18 18 18 19 19 19 18 18 18 18 18 17
14 15 16 17 18 18 16 16 17 17 18 19 19 19 19 18 18 18 17 17 18 18 18 17 17 17 17 17 17 17 17 18 18 19 19 19 19 19 19 18 18 18 18
14 14 15 16 17 18 17 15 16 16 17 18 19 19 19 19 19 19 18 18 18 18 17 17 17 17 17 17 17 18 18 18 18 18 19 19 19 19 19 19 19 18 18
14 15 15 15 16 17 18 15 15 16 17 17 18 19 19 18 19 18 17 17 18 18 17 17 17 17 17 17 17 17 17 18 18 18 19 19 19 19 19 19 19 18 18
14 15 14 14 15 15 15 14 15 15 16 16 18 18 18 17 17 16 16 16 17 16 17 16 16 17 17 17 17 16 17 17 18 18 18 19 19 19 19 19 19 19 19
13 13 14 13 14 15 13 13 14 14 15 16 16 17 17 18 17 16 16 16 16 16 16 17 16 16 17 17 15 16 17 18 18 18 19 19 19 19 19 19 19 19 19
12 13 14 13 13 14 13 13 14 15 14 15 15 16 16 17 17 16 16 15 15 15 15 16 17 16 16 16 16 15 16 18 19 19 19 19 19 19 19 19 19 19 18
10 12 13 14 13 13 13 13 14 14 14 14 14 15 16 15 15 16 16 16 15 15 15 15 15 15 15 15 16 17 16 17 16 18 18 19 19 18 19 18 18 18 17
11 12 12 13 12 12 14 12 13 14 14 14 15 16 16 15 15 15 15 15 15 15 15 15 15 15 16 15 14 16 17 17 16 17 17 17 17 18 18 18 18 17 16
12 12 12 12 12 12 12 12 13 13 14 14 14 15 15 15 15 15 14 14 14 14 15 15 14 14 15 16 16 15 14 14 14 14 16 16 17 18 18 18 17 16 16
12 12 11 11 12 13 13 13 13 13 14 14 14 15 15 15 15 15 15 14 14 14 14 14 14 14 15 15 15 16 16 16 14 14 14 14 14 16 16 16 16 15 15
Height
786 787 789 791 792 796 799 801 803 805 807 809 811 813 815 817 819 821 822 823 825 827 828 829 830 831 832 834 834 835 834 835 835 836 836 836 837 837 837 837 837 839 838
787 787 790 792 794 796 800 802 804 806 808 811 812 814 816 818 820 822 823 824 826 828 830 830 831 833 833 835 835 836 836 836 836 837 838 838 839 839 838 839 839 840 840
786 787 791 792 795 797 801 803 805 807 809 811 813 815 817 818 820 822 824 825 827 829 830 831 833 834 834 835 836 837 838 838 838 839 839 841 841 841 841 841 841 842 842
787 789 792 793 795 798 801 804 807 809 810 812 814 816 817 819 821 822 824 826 827 830 832 833 834 835 835 836 836 837 839 839 840 840 841 842 843 843 843 843 844 844 844
788 789 792 794 796 798 801 804 806 809 811 812 814 815 817 819 822 823 824 827 828 830 832 833 834 836 837 838 838 839 839 840 841 842 842 843 844 845 845 845 845 845 845
789 790 792 794 795 798 800 804 806 808 811 812 814 815 817 819 822 824 825 827 828 830 832 834 835 836 838 839 840 840 841 841 842 843 843 844 845 845 845 845 846 846 846
789 790 793 794 796 798 800 803 806 808 810 812 813 815 816 819 822 824 826 827 829 830 832 834 836 837 838 839 841 841 842 842 843 844 844 845 846 846 847 846 846 847 847
790 791 793 795 795 799 800 802 804 807 809 811 813 814 816 818 822 824 826 828 830 831 832 834 836 837 839 840 841 842 843 844 845 845 846 846 847 848 848 848 848 848 848
790 791 793 795 796 798 800 801 803 806 808 810 812 814 816 818 821 823 826 828 830 832 833 835 836 837 839 840 841 842 843 844 845 846 847 848 848 849 849 849 850 850 850
792 791 793 794 796 797 799 801 803 804 807 809 811 814 816 818 820 822 824 827 829 832 834 836 837 838 839 840 841 843 843 844 845 846 847 848 849 850 850 850 850 851 851
791 792 792 793 794 796 798 800 802 803 806 808 810 813 815 817 820 822 824 826 828 830 833 836 838 839 840 840 841 843 844 845 846 846 847 848 849 850 850 851 851 851 851
790 790 791 791 792 794 795 797 800 802 805 807 809 811 814 816 819 821 823 826 828 830 832 834 837 840 841 841 842 843 844 844 845 846 847 847 848 850 850 850 851 851 851
788 788 789 789 789 791 793 795 798 800 802 804 807 809 812 815 817 820 823 825 828 830 832 834 836 839 840 842 843 843 844 844 845 845 846 846 847 848 849 850 850 850 850
785 784 785 786 786 788 789 792 794 796 798 800 803 807 810 812 815 817 820 823 826 827 829 832 834 837 839 841 842 844 844 844 844 845 845 845 845 846 847 848 848 849 849
780 779 780 782 781 782 783 785 790 792 795 796 799 802 805 808 811 814 817 820 823 825 828 830 833 835 837 839 840 841 842 843 843 844 844 844 844 845 846 847 847 847 847
775 774 775 776 777 777 778 780 784 788 790 792 795 798 801 803 806 809 813 817 819 822 825 829 832 835 837 839 839 840 841 841 841 842 842 843 843 844 845 845 845 846 846
767 768 767 771 773 773 774 776 778 782 786 788 791 793 797 801 803 805 809 813 816 820 823 827 830 832 834 837 837 838 838 839 839 839 839 840 841 841 842 843 843 843 843
761 761 762 764 765 768 769 771 774 777 780 784 787 789 792 796 799 802 805 809 813 817 820 824 826 829 829 831 834 835 836 835 836 837 837 836 837 838 838 839 839 840 839
755 755 755 758 761 762 764 766 769 773 776 780 782 785 788 791 795 798 801 804 808 812 816 819 823 826 828 827 830 831 833 832 832 832 832 833 833 833 834 834 834 835 835
749 750 750 752 755 758 760 762 765 769 772 776 778 781 784 787 791 795 798 800 804 808 811 815 819 820 824 826 827 827 829 829 828 827 827 827 828 829 829 830 830 830 830
742 743 743 746 748 753 755 757 760 762 767 770 774 776 779 783 786 790 793 797 800 803 805 808 812 814 818 819 826 823 823 824 824 821 821 823 823 824 824 825 826 827 826
734 735 737 738 742 746 749 752 754 757 762 765 769 772 776 777 781 784 787 792 794 798 801 803 804 806 808 811 818 820 821 820 816 814 815 817 817 820 821 820 821 822 822
728 728 729 730 735 739 743 747 750 755 757 761 765 768 769 773 776 779 783 783 789 792 794 796 799 799 804 806 808 810 817 821 813 808 806 807 810 813 815 815 815 816 818
720 721 722 725 729 734 738 743 745 747 750 753 757 761 764 768 772 775 778 779 783 785 787 788 792 795 798 799 801 804 807 813 812 809 805 803 805 807 809 810 810 810 812
715 714 716 720 724 731 734 739 741 744 747 750 753 756 760 763 766 768 771 774 776 777 780 782 785 787 789 794 792 795 801 807 808 809 806 804 804 805 806 805 807 807 805
710 710 711 716 720 724 729 735 738 741 745 749 751 754 755 757 759 762 764 766 767 770 771 774 777 779 781 784 786 789 794 796 800 803 805 801 800 801 800 801 802 801 801
Wind_Speed
11 20 24 24 23 24 23 21 20 20 22 23 20 19 17 15 16 18 18 18 21 18 16 16 16 16 18 17 15 13 16 14 14 16 16 13 13 14 14 14 15 13 14
7 23 25 24 23 22 21 21 21 22 23 20 20 19 17 16 17 17 17 17 20 16 16 15 16 18 18 15 14 15 15 15 17 17 16 16 15 14 15 15 16 14 14
9 23 24 24 23 22 21 21 20 22 21 20 18 17 16 15 17 17 18 17 19 18 17 17 15 17 17 17 17 16 15 16 17 17 17 15 15 17 17 16 15 14 14
11 18 21 23 24 23 21 20 20 19 19 18 18 16 16 16 17 19 17 18 21 18 18 17 17 16 15 16 16 16 16 15 16 15 12 12 12 13 13 13 14 12 12
12 21 21 22 23 23 22 22 20 19 18 18 17 17 17 17 18 18 17 19 20 19 20 18 18 16 15 15 15 15 15 14 13 13 12 11 11 10 10 11 10 10 10
11 20 22 20 22 23 23 21 20 20 19 17 17 16 17 18 18 16 18 22 20 21 21 18 17 16 14 13 13 12 12 13 12 11 10 9 9 9 9 9 9 9 9
9 18 20 20 20 23 23 23 21 21 20 20 18 17 17 19 19 17 20 23 18 21 20 18 17 15 14 13 13 12 11 11 11 11 11 10 8 9 8 9 9 9 9
5 15 19 19 19 21 23 23 24 22 21 20 19 19 18 18 21 18 21 21 15 18 18 19 18 16 14 13 13 11 10 10 10 10 10 10 9 8 8 8 8 8 8
5 10 16 20 18 18 20 22 23 23 22 21 21 20 19 20 19 20 22 20 16 16 18 19 18 16 14 13 13 11 10 10 9 9 9 7 8 7 7 6 6 6 6
14 7 14 18 19 20 20 20 22 23 22 22 21 20 19 19 19 21 23 21 18 16 17 19 18 16 14 13 13 11 9 9 8 8 8 7 7 5 4 5 5 5 5
17 14 9 17 20 21 21 22 21 22 22 22 22 20 19 19 20 20 22 21 19 18 18 19 18 16 14 13 12 12 9 9 8 7 7 7 7 5 4 3 3 3 3
22 18 14 12 20 23 23 23 23 22 21 21 21 22 20 20 20 22 22 20 18 18 18 19 19 16 14 13 13 12 11 10 9 7 7 6 6 6 5 4 3 2 0
25 21 16 15 16 22 27 24 24 24 24 24 22 22 23 22 21 22 20 21 18 18 17 18 18 16 17 15 13 12 11 10 9 9 8 7 7 8 8 6 5 4 3
28 25 19 15 13 20 25 28 28 26 26 26 25 25 25 25 24 23 20 19 18 19 20 21 20 18 17 15 14 13 12 11 10 10 10 9 8 8 9 8 7 6 5
26 28 23 18 16 15 19 26 27 27 27 27 29 29 28 27 26 26 23 23 20 21 21 20 19 18 17 15 15 15 15 14 13 12 11 11 11 10 9 10 9 8 7
29 30 26 22 19 16 19 22 26 28 28 29 29 31 30 31 28 29 26 25 24 23 23 21 19 17 16 15 14 15 15 16 15 14 14 14 13 12 11 11 9 9 9
31 28 29 25 23 20 19 24 24 28 27 29 29 30 30 31 31 31 29 28 28 26 23 21 19 19 16 16 17 16 16 16 18 17 16 16 15 16 14 14 13 11 11
27 30 30 27 27 24 20 23 25 26 29 28 27 29 31 31 31 31 32 34 32 28 24 22 21 19 19 18 18 18 19 18 19 20 19 17 17 17 18 19 19 17 15
27 27 30 29 28 26 23 23 25 25 26 28 27 27 31 31 32 32 32 34 34 31 28 24 23 21 19 18 19 17 20 20 20 21 22 21 21 20 19 19 20 22 21
29 27 30 31 29 25 21 21 24 24 26 26 27 26 27 29 30 30 30 32 32 31 29 25 24 21 20 20 20 16 21 24 24 24 24 22 22 22 22 21 19 22 24
28 28 31 31 30 27 20 20 22 23 28 27 26 22 23 23 26 31 31 28 30 32 34 29 30 25 25 19 15 15 22 28 29 27 25 25 24 24 23 23 22 21 21
28 31 30 31 28 29 25 21 19 24 23 27 28 25 24 24 26 27 30 29 31 30 28 35 35 25 26 31 15 6 3 12 21 27 29 27 26 24 23 22 22 21 21
25 31 32 32 29 29 28 24 23 22 16 18 22 26 29 27 26 27 31 32 32 35 33 35 35 30 25 24 22 9 2 7 3 10 23 29 26 23 23 21 20 20 22
26 30 33 33 28 26 28 23 24 24 18 20 27 31 31 31 31 31 31 31 33 37 33 36 35 33 29 23 20 28 26 13 3 3 4 8 16 16 18 19 21 22 23
21 24 26 28 24 23 24 24 24 22 21 20 22 22 24 26 27 31 33 32 34 34 39 38 35 35 32 27 23 13 24 20 15 4 3 3 5 9 14 16 19 23 25
18 22 21 22 24 27 25 27 23 21 18 16 17 19 23 25 27 28 32 33 34 34 36 38 38 33 34 33 24 25 23 12 17 13 8 9 8 20 22 22 22 23 26
Wind_Direction
210 179 174 172 170 169 169 163 159 158 159 161 152 150 150 149 145 144 143 138 138 131 131 131 133 129 120 118 119 109 108 113 106 108 105 103 106 103 98 104 104 95 91
229 179 178 175 170 171 167 168 162 160 161 161 154 152 153 153 152 152 151 144 137 135 135 133 135 135 126 132 122 115 107 112 117 114 104 105 108 104 97 98 99 97 94
210 179 179 179 174 170 169 171 168 166 164 161 160 159 157 160 157 159 156 152 146 142 142 135 129 127 131 130 128 123 120 120 122 122 112 102 99 98 96 96 99 95 92
180 181 181 183 180 174 174 174 172 172 170 169 166 164 164 162 161 159 162 157 148 145 145 147 144 142 142 134 134 132 131 129 126 125 113 114 107 100 97 95 96 98 97
184 187 187 188 187 182 182 177 175 175 175 177 175 172 170 166 165 165 165 157 152 157 151 162 150 145 141 138 136 138 141 141 140 135 122 118 114 109 106 104 100 95 90
193 191 187 193 190 188 186 182 181 177 179 178 178 180 178 173 173 174 165 159 165 162 164 155 152 150 150 152 150 142 144 150 148 146 140 130 116 119 112 109 104 99 94
205 197 192 196 194 191 192 188 186 187 185 183 189 188 185 177 177 180 170 169 171 166 163 158 157 154 149 145 150 153 145 148 151 145 140 134 123 122 117 112 105 100 95
239 203 197 202 203 200 198 195 194 195 193 192 193 194 191 187 179 179 178 176 176 171 164 163 163 158 155 153 151 150 147 148 146 144 142 136 133 129 123 117 108 100 90
311 223 211 205 215 209 206 204 201 201 199 198 199 198 196 191 190 192 185 181 179 177 173 173 171 166 162 161 160 153 149 151 150 149 146 141 135 135 129 118 107 98 88
17 251 227 222 219 223 216 210 208 208 206 202 204 205 202 196 196 197 189 185 183 184 184 182 180 175 169 166 170 166 157 156 158 157 156 153 141 154 141 127 116 103 86
349 7 257 227 226 226 227 220 215 217 214 210 210 210 206 201 197 196 194 189 192 189 189 189 190 186 181 174 175 180 176 176 173 169 169 169 160 179 175 161 148 131 100
316 325 339 253 234 229 228 223 221 220 218 217 214 211 208 206 198 193 198 196 198 198 196 194 196 197 196 189 186 189 198 196 195 192 188 187 186 199 210 206 200 194 152
297 299 307 315 247 238 231 226 223 221 221 221 220 216 213 210 203 200 197 196 193 199 196 196 198 200 206 208 205 203 202 207 212 215 214 210 210 207 221 230 224 224 236
288 283 285 294 291 247 232 228 228 223 222 221 218 221 216 211 205 202 198 196 196 198 203 204 204 206 211 215 221 223 221 225 232 235 232 227 223 221 224 234 240 241 251
275 273 267 274 282 264 237 231 224 224 227 225 218 218 218 214 208 206 204 203 203 207 206 207 208 213 217 223 226 229 232 235 240 245 243 236 234 235 231 236 248 254 257
265 266 265 259 267 274 238 230 231 222 225 226 221 217 217 217 211 208 206 207 209 210 210 213 214 223 228 235 237 241 243 244 244 248 251 247 243 244 245 242 243 251 251
263 260 259 253 255 260 252 232 231 232 223 226 226 221 220 219 217 212 208 210 211 211 210 209 216 224 232 243 245 248 248 252 253 252 255 251 246 249 249 250 252 252 253
256 258 254 247 244 247 247 236 229 229 225 223 226 224 218 222 223 217 214 216 216 211 210 214 220 229 231 240 254 254 257 258 259 259 258 252 249 254 256 251 251 250 251
253 256 254 248 244 241 242 237 236 227 222 225 224 225 221 219 222 223 217 219 218 215 214 220 227 233 237 241 259 266 267 264 265 259 257 257 253 256 258 255 251 250 249
252 257 256 249 244 238 237 230 234 233 230 225 223 224 223 219 222 221 220 219 216 212 211 213 222 225 247 252 263 268 273 272 268 262 259 253 254 255 255 257 254 253 243
251 251 249 244 241 234 218 214 216 216 220 218 220 218 222 222 223 224 223 219 219 218 215 211 216 219 231 248 260 277 276 281 268 263 259 255 252 256 254 257 259 258 247
246 247 243 242 233 227 216 212 206 209 219 218 217 214 224 224 226 221 220 222 225 218 216 220 212 216 226 226 214 219 299 283 266 257 254 253 255 256 257 256 256 258 250
245 243 237 238 232 228 223 210 206 208 206 211 215 218 219 219 224 226 227 218 219 222 221 220 217 208 214 218 222 196 116 239 302 261 243 241 244 250 251 253 258 256 248
255 248 240 236 232 221 225 209 203 204 205 215 222 229 229 229 229 232 231 231 229 227 221 220 215 216 217 212 211 222 224 246 236 291 251 239 238 246 256 261 259 251 239
262 254 243 234 225 215 210 213 206 203 213 220 225 234 240 243 240 240 237 231 234 226 229 224 218 220 219 223 215 205 218 233 238 226 272 225 259 272 275 266 265 249 232
271 253 239 219 212 211 203 212 208 205 210 219 222 230 238 243 247 245 243 238 233 229 226 228 227 221 220 227 223 222 219 215 220 220 242 255 264 286 287 270 254 247 240